Location: Wellington
(41.3000°S, 174.7830°E)
Time: 10:09:26
(UTC+13:00)

NOAA 11 - Pass Details

Date: 24 January 2019
Orbit: 832 x 850 km, 98.5° (Epoch: 16 February)

Event Time Altitude Azimuth Distance (km) Brightness Sun altitude
Rises 21:29:10 0° 163° (SSE) 3,450 7.6 -7.3°
Reaches altitude 10° 21:31:37 10° 158° (SSE) 2,508 6.8 -7.7°
Maximum altitude 21:37:06 56° 80° (E) 1,021 4.4 -8.5°
Drops below altitude 10° 21:42:31 10° 2° (N) 2,480 6.3 -9.4°
Sets 21:44:55 0° 357° (N) 3,407 7.0 -9.7°
